Content
SEND FEEDBACK

Daily
Averages
Monthly
Summary
United States of America

PLAINVILLE, KANSAS


Home > North America > United States > Kansas
Elevation: 2144 feet     Latitude: 39 14N     Longitude: 099 18W

WEATHER
 
SELECT A DAY
Number of Records: 344,479;   Date Range: 1/1/95 - 7/27/14
 
SHARE

PRINT THIS DATA

[ ← Previous Day ]
WEATHER ALMANAC - FEBRUARY 13, 2013
[ Next Day → ]
[ °C ]   °F
Weather ElementAverageHighLow
Temperature37.9 °F57.2 °F (2:35 pm)19.4 °F (2:15 am)
Dewpoint17.9 °F21.2 °F (10:35 am)12.2 °F (12:35 am)
Humidity49.3 %80 % (2:35 am)21 % (2:35 pm)
Barometer29.91 in29.97 in (12:35 am)29.84 in (3:15 pm)
Wind Speed10.1 mph20.7 mph (12:55 pm)
Wind Gust27.6 mph (12:55 pm)
Weather ElementAverage
Visibility10 mi
Wind DirectionWNW (287.5 °)

Weather ElementTotal
Precipitation---
Heating Degree Days26.7 (Base 65)
Averaged from 71 records on February 13, 2013
WEATHER CONDITIONS BREAKOUT
WIND DIRECTION BREAKOUT
WEATHER BY HOUR - FEBRUARY 13, 2013
[ °C ]   °F
Local TimeTemperatureDewpointHumidityBarometerVisibilityWind DirectionWind SpeedGust SpeedPrecipitationEventsConditions
12:35 AM26.6 °F12.2 °F55 %29.97 in10.0 miWNW (300°)5.8 mphClear
12:55 AM24.8 °F12.2 °F59 %29.97 in10.0 miWNW (290°)6.9 mphClear
1:15 AM23.0 °F12.2 °F63 %29.96 in10.0 miWNW (290°)6.9 mphClear
1:35 AM21.2 °F14.0 °F74 %29.96 in10.0 miWest (270°)5.8 mphClear
1:55 AM21.2 °F12.2 °F68 %29.96 in10.0 miWest (270°)6.9 mphClear
2:15 AM19.4 °F12.2 °F74 %29.97 in10.0 miWest (270°)8.1 mphClear
2:35 AM19.4 °F14.0 °F80 %29.97 in10.0 miWest (270°)8.1 mphPartly Cloudy
2:55 AM19.4 °F14.0 °F80 %29.97 in10.0 miWNW (300°)6.9 mphMostly Cloudy
3:15 AM23.0 °F15.8 °F74 %29.97 in10.0 miNW (310°)4.6 mphOvercast
3:35 AM23.0 °F15.8 °F74 %29.97 in10.0 miNW (310°)3.5 mphScattered Clouds
3:55 AM24.8 °F15.8 °F69 %29.96 in10.0 miWest (280°)4.6 mphClear
4:15 AM24.8 °F15.8 °F69 %29.95 in10.0 miWest (280°)4.6 mphClear
4:35 AM24.8 °F15.8 °F69 %29.95 in10.0 miWNW (290°)6.9 mphClear
4:55 AM24.8 °F15.8 °F69 %29.95 in10.0 miNW (320°)8.1 mphClear
5:15 AM24.8 °F17.6 °F74 %29.95 in10.0 miWNW (290°)5.8 mphClear
5:35 AM24.8 °F17.6 °F74 %29.95 in10.0 miWNW (290°)10.4 mphClear
5:55 AM26.6 °F17.6 °F69 %29.94 in10.0 miWNW (290°)9.2 mphClear
6:15 AM24.8 °F17.6 °F74 %29.94 in10.0 miWNW (290°)8.1 mphClear
6:35 AM24.8 °F15.8 °F69 %29.94 in10.0 miWest (270°)6.9 mphClear
6:55 AM24.8 °F17.6 °F74 %29.94 in10.0 miWNW (290°)10.4 mphClear
7:15 AM24.8 °F17.6 °F74 %29.94 in10.0 miWNW (290°)10.4 mphClear
7:35 AM24.8 °F15.8 °F69 %29.94 in10.0 miWNW (290°)10.4 mphClear
7:55 AM26.6 °F17.6 °F69 %29.95 in10.0 miWNW (290°)9.2 mphClear
8:15 AM26.6 °F17.6 °F69 %29.95 in10.0 miWNW (290°)9.2 mphClear
8:35 AM28.4 °F19.4 °F69 %29.95 in10.0 miWNW (290°)10.4 mphClear
8:55 AM32.0 °F19.4 °F60 %29.95 in10.0 miWNW (290°)10.4 mphClear
9:15 AM35.6 °F19.4 °F52 %29.95 in10.0 miWNW (290°)12.7 mphClear
9:35 AM37.4 °F19.4 °F48 %29.95 in10.0 miWNW (300°)12.7 mphClear
9:55 AM37.4 °F19.4 °F48 %29.95 in10.0 miWNW (300°)12.7 mphClear
10:15 AM39.2 °F19.4 °F45 %29.95 in10.0 miWNW (300°)15.0 mphClear
10:35 AM42.8 °F21.2 °F42 %29.94 in10.0 miWNW (300°)12.7 mphClear
10:55 AM44.6 °F21.2 °F39 %29.94 in10.0 miWNW (300°)11.5 mph20.7 mphClear
11:15 AM46.4 °F19.4 °F34 %29.94 in10.0 miNW (310°)15.0 mph21.9 mphClear
11:35 AM48.2 °F19.4 °F32 %29.94 in10.0 miWNW (300°)13.8 mph20.7 mphClear
11:55 AM50.0 °F19.4 °F30 %29.93 in10.0 miNW (310°)17.3 mph21.9 mphClear
12:15 PM51.8 °F19.4 °F28 %29.92 in10.0 miWest (280°)16.1 mph21.9 mphClear
12:35 PM51.8 °F19.4 °F28 %29.91 in10.0 miWNW (290°)16.1 mph21.9 mphClear
12:55 PM53.6 °F19.4 °F26 %29.89 in10.0 miWNW (290°)20.7 mph27.6 mphClear
1:15 PM55.4 °F17.6 °F23 %29.88 in10.0 miWNW (290°)17.3 mph27.6 mphClear
1:35 PM55.4 °F17.6 °F23 %29.87 in10.0 miWest (280°)16.1 mph25.3 mphClear
1:55 PM55.4 °F17.6 °F23 %29.86 in10.0 miWNW (290°)16.1 mph23.0 mphClear
2:15 PM55.4 °F17.6 °F23 %29.86 in10.0 miWest (280°)20.7 mph25.3 mphClear
2:35 PM57.2 °F17.6 °F21 %29.85 in10.0 miWNW (290°)20.7 mph24.2 mphClear
2:55 PM57.2 °F19.4 °F23 %29.85 in10.0 miWNW (300°)17.3 mph21.9 mphClear
3:15 PM57.2 °F17.6 °F21 %29.84 in10.0 miWNW (290°)15.0 mphClear
3:35 PM57.2 °F19.4 °F23 %29.84 in10.0 miNW (310°)20.7 mph25.3 mphClear
3:55 PM55.4 °F19.4 °F25 %29.85 in10.0 miNW (310°)13.8 mph21.9 mphClear
4:15 PM55.4 °F19.4 °F25 %29.85 in10.0 miWNW (300°)16.1 mph23.0 mphClear
4:35 PM55.4 °F19.4 °F25 %29.85 in10.0 miWNW (300°)12.7 mph18.4 mphClear
4:55 PM53.6 °F17.6 °F24 %29.85 in10.0 miWNW (300°)13.8 mphClear
5:15 PM53.6 °F19.4 °F26 %29.85 in10.0 miWNW (300°)16.1 mphClear
5:35 PM53.6 °F19.4 °F26 %29.85 in10.0 miWNW (290°)10.4 mphClear
5:55 PM53.6 °F19.4 °F26 %29.85 in10.0 miWest (280°)6.9 mphClear
6:15 PM48.2 °F17.6 °F30 %29.85 in10.0 miWest (280°)6.9 mphClear
6:35 PM46.4 °F17.6 °F32 %29.86 in10.0 miWNW (290°)8.1 mphClear
6:55 PM44.6 °F17.6 °F34 %29.86 in10.0 miWest (280°)6.9 mphClear
7:15 PM41.0 °F17.6 °F39 %29.86 in10.0 miWest (280°)6.9 mphClear
7:35 PM39.2 °F17.6 °F42 %29.86 in10.0 miWNW (290°)6.9 mphClear
7:55 PM39.2 °F17.6 °F42 %29.87 in10.0 miWNW (290°)6.9 mphClear
8:15 PM37.4 °F17.6 °F45 %29.88 in10.0 miWNW (290°)6.9 mphMostly Cloudy
8:35 PM37.4 °F19.4 °F48 %29.88 in10.0 miWNW (300°)5.8 mphMostly Cloudy
8:55 PM37.4 °F19.4 °F48 %29.87 in10.0 miWest (280°)4.6 mphOvercast
9:15 PM37.4 °F21.2 °F52 %29.88 in10.0 miWNW (300°)5.8 mphOvercast
9:35 PM39.2 °F21.2 °F49 %29.88 in10.0 miNW (320°)5.8 mphMostly Cloudy
9:55 PM39.2 °F21.2 °F49 %29.88 in10.0 miWNW (300°)5.8 mphPartly Cloudy
10:15 PM37.4 °F19.4 °F48 %29.88 in10.0 miWest (280°)4.6 mphClear
10:35 PM35.6 °F21.2 °F56 %29.89 in10.0 miWNW (300°)3.5 mphClear
10:55 PM33.8 °F21.2 °F60 %29.89 in10.0 miCalmClear
11:15 PM30.2 °F19.4 °F64 %29.90 in10.0 miWest (270°)8.1 mphClear
11:35 PM30.2 °F19.4 °F64 %29.91 in10.0 miWest (280°)8.1 mphClear
11:55 PM30.2 °F21.2 °F69 %29.91 in10.0 miWNW (290°)9.2 mphClear
Hourly data recorded from KHYS, located miles away from Plainville, Kansas







STORIES FROM OUR PARTNERS